星链-31756 (STARLINK-31756)

导读 | 星芒AI

STARLINK-31756 是 SpaceX Starlink 卫星互联网项目中的一颗低轨卫星,属于第三代星链卫星(v1.5)。该卫星于2023年发射,运行在约540公里高度的近地轨道,旨在为全球提供高速、低延迟的宽带互联网服务。它采用先进的推进系统和激光通信技术,提高网络效率并减少空间碎片风险。Starlink 卫星群的部署加速了全球互联网覆盖,尤其在偏远地区具有重要意义。

基本信息
目录编号:
61517
目录名称:
STARLINK-31756
国际标识:
2024-183J
轨道中心:
EARTH
卫星名称:
星链-31756
卫星全名:
星链-31756 (STARLINK-31756)
卫星状态:
在轨 (已飞行383 天)
发射日期:
2024-10-15 UTC
国别 :
美国 (US)
星等 :
--
轨道信息
数据来源 国际轨道数据 AOE轨道数据
星历时间 2025-11-01T22:04:45+0800
20小时前
查看轨道信息
2025-10-30T06:00:00+0800
3天前
查看轨道信息
半长轴 6853.386km 6853.383km
偏心率 0.0001443 0.0001211
轨道倾角 53.161° 53.161°
近地点辐角 65.117° 88.591°
升交点赤经 17.826° 30.225°
平近点角 294.998° 315.304°
近地点 474.262km 474.418km
远地点 476.24km 476.078km
周期 94.106分钟 94.106分钟
每日圈数 15.301889 15.301899
详细信息
固有亮度:
5
最大亮度:
2.5
卫星平台:
Starlink V1.0
覆盖范围:
全球
运营商:
太空探索技术公司
运营商所在国:
美国
制造商(研发单位):
太空探索技术公司
制造商所在国:
美国
使用方式:
暂无
卫星简介
Starlink 计划是 SpaceX 推出的全球卫星互联网项目,通过发射低轨道卫星,为全球尤其是偏远地区提供高速、低延迟的互联网服务。自 2019 年起,Starlink 已部署数千颗卫星,旨在缩小全球数字鸿沟,推动互联网普及。该项目还为军事、航空等行业提供通信支持,带来广泛经济效益。
2D轨道图
3D轨道图
轨道高度分析图
轨道倾角分析图
轨道综合分析图
查看轨道综合分析图